Regional Weather Roundup
Issued by NWS

Home | Current Version | Previous Version | Text Only | Print | Product List | Glossary On
Versions: 1 2 3 4 5 6 7 8 9 10 11 12 13 14 15 16 17 18 19 20 21 22 23 24 25 26 27
000
ASUS45 KBOU 301110
RWRCO

WEATHER ROUNDUP FOR COLORADO
NATIONAL WEATHER SERVICE DENVER/BOULDER CO
500 AM MDT FRI SEP 30 2016

NOTE: "FAIR" INDICATES FEW OR NO CLOUDS BELOW 12000 FEET WITH NO
SIGNIFICANT WEATHER AND/OR OBSTRUCTIONS TO VISIBILITY.

COZ001>005-013-030-031-301200-
...NORTHWEST COLORADO...

CITY           SKY/WX    TMP DP  RH WIND       PRES   REMARKS
CRAIG          CLOUDY    53  50  89 CALM      30.35S
HAYDEN         MOCLDY    52  46  82 CALM      30.36S
MEEKER         LGT RAIN  53  51  93 N3        30.36S
MOUNT WERNER   NOT AVBL
STEAMBOAT SPGS CLOUDY    49  49  98 E3        30.38S
WALDEN           N/A     50  43  76 S3        30.42S
$$

COZ006>008-011-301200-
...WEST CENTRAL VALLEYS...

CITY           SKY/WX    TMP DP  RH WIND       PRES   REMARKS
GRAND JUNCTION CLOUDY    57  55  93 CALM      30.31R
MONTROSE       CLOUDY    55  51  86 CALM      30.37R
EAGLE          CLOUDY    50  48  93 E3        30.39S
RIFLE          CLOUDY    56  55  97 CALM      30.34S
DELTA          NOT AVBL
NUCLA          CLOUDY    54  52  94 CALM      30.40S
$$

COZ017>023-064>068-301200-
...SOUTHWEST COLORADO...

CITY           SKY/WX    TMP DP  RH WIND       PRES   REMARKS
DURANGO        FAIR      51  48  89 CALM      30.38S
CORTEZ         CLOUDY    49  47  93 CALM      30.36R
PAGOSA SPRINGS CLOUDY    50  48  90 CALM      30.44S
TELLURIDE      CLOUDY    46  46 100 W5        30.50S FOG
WOLF CREEK PAS FOG       34  34 100 SW10G16   30.64S VSB 1/4 WCI  26
$$

COZ009-010-012-014-032>034-037-058>063-301200-
...CENTRAL COLORADO...

CITY           SKY/WX    TMP DP  RH WIND       PRES   REMARKS
ASPEN          CLOUDY    50  44  80 SE5       30.41S
BUENA VISTA    CLOUDY    50  36  58 CALM      30.40S
COPPER MTN     CLOUDY    41  34  75 CALM      30.60S
BERTHOUD PASS  CLOUDY    32  19  59 N12G21    30.63R HAZE    WCI  23
COTTONWOOD PAS CLOUDY    52  36  54 NW7       30.49F
GUNNISON       CLOUDY    50  43  76 CALM      30.42F
KREMMLING      LGT RAIN  46  41  81 CALM      30.41S
LEADVILLE      CLOUDY    42  32  67 NE6       30.47F
MONARCH PASS   CLOUDY    36  34  93 W20       30.69F
SALIDA         CLOUDY    58  38  47 SW6       30.45S
SUNLIGHT       DRIZZLE   43  43 100 SW7       30.57S
WILKERSON PASS FAIR      43  32  65 SW10G16   30.58S
$$

COZ069>075-301200-
...SAN LUIS VALLEY/SANGRE DE CRISTO MOUNTAINS...

CITY           SKY/WX    TMP DP  RH WIND       PRES   REMARKS
ALAMOSA        FAIR      45  40  82 S8        30.39S
LA VETA PASS   FAIR      43  36  75 MISG      30.50F
SAGUACHE       FAIR      46  36  66 CALM      30.42S
$$

COZ035-036-038>040-301200-
...NORTHERN COLORADO FRONT RANGE...

CITY           SKY/WX    TMP DP  RH WIND       PRES   REMARKS
DENVER INTL AP MOCLDY    60  40  47 W13       30.20F
DMNS CITY PARK   N/A     57  40  53 N1        30.21S
AURORA         MOCLDY    58  40  51 W7        30.23S
FRONT RANGE AP NOT AVBL
ERIE MUNI ARPT FAIR      53  41  63 CALM      30.21F
BOULDER MUN AP NOT AVBL
CENTENNIAL     MOCLDY    59  41  51 CALM      30.23F
BROOMFIELD     FAIR      59  37  44 N8        30.23F
FORT COLLINS   MOCLDY    55  43  62 N6        30.22R
LONGMONT       MOCLDY    56  44  62 CALM      30.22S
$$

COZ041-046-047-076>085-087-088-301200-
...PIKES PEAK/PALMER DIVIDE AND SOUTHERN FOOTHILLS...

CITY           SKY/WX    TMP DP  RH WIND       PRES   REMARKS
COLO. SPRINGS  MOCLDY    53  39  59 N6        30.26F
A. F. ACADEMY  MOCLDY    49  36  60 NE5       30.26F
SCHRIEVER AFB  NOT AVBL
ELLICOTT       NOT AVBL
FALCON         CLOUDY    55  37  52 NE3       30.29F
FORT CARSON    FAIR      50  38  62 N5        30.22F
LIMON          FAIR      39  37  92 CALM      30.24S
MONUMENT HILL  CLOUDY    54  34  47 W7        30.32S
TRINIDAD       FAIR      57  35  43 W8        30.24S
$$

COZ042>045-048>051-090-091-301200-
...NORTHEAST COLORADO...

CITY           SKY/WX    TMP DP  RH WIND       PRES   REMARKS
GREELEY ARPT   FAIR      54  41  62 N7        30.20S
AKRON          FAIR      46  39  76 SE5       30.20F
BURLINGTON     FAIR      47  38  71 SE12      30.21F
WRAY           NOT AVBL
STERLING       FAIR      46  41  81 NE5       30.18F
HOLYOKE        NOT AVBL
FORT MORGAN    FAIR      48  40  74 NE6       30.19S
$$

COZ086-089-092>099-301200-
...SOUTHEAST COLORADO...

CITY           SKY/WX    TMP DP  RH WIND       PRES   REMARKS
PUEBLO         FAIR      54  40  59 CALM      30.19F
LA JUNTA       FAIR      51  44  77 CALM      30.16S
LAMAR          FAIR      46  40  79 E10       30.15F
SPRINGFIELD      N/A     49  44  83 S10       30.20F
$$




USA.gov is the U.S. government's official web portal to all federal, state and local government web resources and services.